Theta_e
297 297 298 302 302 301 301 302 303 302 303 305 306 306 308 309 310 311 311 310 310 310
297 296 297 301 302 301 302 302 301 302 302 303 304 306 308 307 308 310 309 309 309 308
296 296 297 299 301 301 301 301 301 302 304 304 304 304 305 306 309 308 308 309 308 308
295 295 296 296 299 301 301 301 301 302 302 303 303 304 304 304 305 306 307 307 306 306
295 295 294 295 296 299 300 302 301 301 301 301 301 302 302 303 302 302 302 303 305 305
294 294 294 294 294 296 298 300 301 301 300 300 300 300 300 301 300 300 301 302 301 302
294 294 293 293 293 294 295 296 297 298 298 299 299 299 299 298 297 297 298 300 300 300
295 294 293 293 293 293 294 294 295 295 295 295 295 295 294 294 294 294 295 297 299 300
294 293 293 292 292 292 292 293 294 293 293 292 292 294 293 293 293 294 294 296 297 299
294 292 292 292 291 291 291 292 292 292 292 291 291 292 293 293 293 295 296 296 297 297
294 292 292 291 291 291 291 291 291 291 291 290 290 292 291 292 293 294 295 295 295 294
294 292 291 290 290 291 290 290 290 290 289 289 289 291 291 291 291 292 293 293 293 293
295 292 290 290 290 290 289 288 289 287 288 288 287 289 290 290 290 290 291 292 291 291
294 291 290 290 290 288 288 287 287 287 287 288 288 288 289 290 288 288 289 289 289 289
Wind_Speed
7 5 6 6 5 6 6 5 7 7 8 9 9 8 9 7 7 7 7 10 9 8
6 7 7 8 6 6 7 6 7 7 8 9 9 10 11 8 9 8 8 9 9 8
6 7 8 8 8 8 8 8 8 8 9 9 8 8 8 8 10 9 7 7 10 9
6 7 8 8 8 8 8 9 9 9 9 9 9 8 8 8 10 10 10 9 10 12
6 7 8 8 9 9 9 8 9 9 9 9 9 9 9 8 7 8 9 10 11 10
7 7 8 8 8 8 9 9 9 8 9 9 9 9 9 7 9 9 10 10 11 11
7 7 7 8 8 8 8 9 9 8 9 9 9 9 8 9 11 11 11 11 13 13
7 6 7 8 8 8 8 8 9 9 9 9 8 6 6 9 11 12 13 13 12 13
7 7 8 7 7 8 9 9 8 9 9 9 7 9 9 11 9 11 12 11 12 11
7 8 8 8 7 8 8 8 8 8 8 9 8 9 12 14 10 10 7 9 8 8
8 8 7 7 7 7 6 7 7 7 7 7 7 9 12 15 11 9 8 6 7 9
8 8 8 8 7 6 6 6 6 7 7 8 7 11 11 12 8 9 7 6 5 7
7 9 9 8 7 6 6 7 6 6 6 9 9 10 10 10 6 7 6 6 5 7
8 9 9 8 7 6 7 6 7 8 7 7 8 8 9 10 6 5 6 5 5 5
Wind_Direction
281 282 291 294 303 296 296 298 310 320 319 309 300 282 272 272 270 265 264 263 265 271
279 284 287 295 291 287 286 284 294 306 293 296 302 309 311 285 276 270 271 271 271 268
287 288 293 295 292 290 295 290 292 294 292 286 293 292 294 296 297 294 271 262 263 269
280 291 293 290 293 296 297 295 290 290 290 290 287 285 290 289 284 283 289 284 278 276
277 278 284 291 297 301 298 295 293 290 291 293 292 294 292 287 293 295 299 300 300 297
267 275 283 291 295 297 297 295 294 292 295 297 297 297 298 299 296 291 282 276 274 276
257 264 274 284 287 287 289 292 298 300 300 299 299 298 293 307 308 301 295 291 282 278
249 252 264 275 282 287 287 288 291 293 293 295 296 293 334 309 303 302 300 294 287 280
245 254 257 262 273 285 287 290 289 288 291 295 294 321 310 302 297 302 301 299 296 294
243 247 245 252 262 265 269 277 278 284 286 287 295 305 310 307 300 294 301 317 300 298
237 242 248 254 258 263 267 275 278 278 280 285 287 301 316 313 305 308 302 310 326 335
232 235 237 238 245 250 262 265 266 277 287 286 286 302 307 318 311 309 309 314 332 338
228 227 234 235 238 243 244 254 264 259 249 261 276 283 291 310 305 302 312 310 313 328
232 227 230 236 229 231 242 243 253 260 262 254 245 270 287 296 304 294 310 306 316 323